EW6187 Weather Reports


time (UTC)temp
F
wind
direction
speed
knots
gust
knots
rain 1hr
in
rain 24hr
in
rain mn
in
humidity
%
barometer
mb
20260510223704 64 186 0.0 2.6 0.00 0.12 0.00 80 1012.4
20260510222704 64 177 0.9 1.7 0.00 0.15 0.00 80 1012.5
20260510222204 64 181 0.9 1.7 0.00 0.16 0.00 81 1012.5
20260510221704 64 167 0.9 1.7 0.00 0.17 0.00 82 1012.3
20260510221204 64 156 0.9 0.9 0.00 0.18 0.00 82 1012.4
20260510220704 64 205 0.9 1.7 0.00 0.19 0.00 82 1012.5
20260510220205 64 253 0.9 1.7 0.00 0.20 0.00 82 1012.4
20260510215704 64 236 0.9 1.7 0.00 0.21 0.00 83 1012.3
20260510215204 64 202 0.9 1.7 0.00 0.26 0.00 83 1012.1
20260510214704 65 212 0.9 1.7 0.00 0.28 0.00 83 1012.1
20260510214205 65 186 0.9 2.6 0.00 0.29 0.00 82 1012.3
20260510213204 66 217 0.9 2.6 0.00 0.30 0.00 80 1012.3
20260510212704 66 185 0.9 0.9 0.00 0.30 0.00 80 1012.2
20260510212205 66 198 0.0 0.9 0.00 0.31 0.00 79 1012.1
20260510211204 66 239 0.0 0.9 0.00 0.31 0.00 74 1012.0
20260510210704 66 255 0.0 0.9 0.00 0.31 0.00 76 1012.1
20260510210204 66 261 0.0 1.7 0.00 0.31 0.00 76 1012.2
20260510205704 66 281 0.0 1.7 0.00 0.31 0.00 77 1012.1
20260510204704 67 292 0.9 2.6 0.00 0.33 0.00 78 1012.0
20260510204205 68 245 0.0 1.7 0.00 0.33 0.00 78 1011.7
20260510203704 68 164 0.0 1.7 0.00 0.34 0.00 76 1011.6
20260510203204 68 158 0.0 0.9 0.00 0.35 0.00 76 1011.4
20260510202704 68 158 0.0 1.7 0.00 0.35 0.00 75 1011.3
20260510202204 68 150 0.0 1.7 0.00 0.36 0.00 75 1011.4
20260510201704 68 166 0.9 2.6 0.00 0.37 0.00 75 1011.3
20260510201204 68 203 0.9 5.2 0.00 0.38 0.00 74 1011.4
20260510195704 69 162 1.7 2.6 0.00 0.47 0.00 74 1011.4
20260510195204 69 160 0.9 2.6 0.00 0.49 0.00 74 1011.5
20260510194704 69 161 1.7 2.6 0.00 0.50 0.00 73 1011.5
20260510194204 69 158 0.9 2.6 0.00 0.51 0.00 74 1011.6
20260510193704 69 145 1.7 2.6 0.00 0.51 0.00 73 1011.5
20260510192704 70 188 0.9 2.6 0.00 0.52 0.00 71 1011.5
20260510192204 70 157 1.7 2.6 0.00 0.53 0.00 71 1011.4
20260510191704 70 168 1.7 4.3 0.00 0.54 0.00 70 1011.5
20260510191204 70 182 1.7 2.6 0.00 0.55 0.00 69 1011.4
20260510190704 70 176 1.7 2.6 0.00 0.56 0.00 70 1011.4
20260510190204 70 198 1.7 2.6 0.00 0.56 0.00 71 1011.5
20260510185704 71 162 2.6 5.2 0.00 0.58 0.00 70 1011.7
20260510185204 71 154 0.9 2.6 0.00 0.59 0.00 70 1011.7
20260510184704 71 208 1.7 2.6 0.00 0.60 0.00 69 1011.7
20260510183704 71 134 1.7 2.6 0.00 0.63 0.00 70 1011.7
20260510183204 71 162 1.7 2.6 0.00 0.64 0.00 71 1011.7
20260510182704 71 123 1.7 2.6 0.00 0.64 0.00 70 1011.7
20260510182204 71 152 1.7 4.3 0.00 0.64 0.00 70 1011.8
20260510181204 71 159 1.7 2.6 0.00 0.64 0.00 72 1012.0
20260510180704 71 170 1.7 5.2 0.00 0.64 0.00 71 1012.1
20260510180204 71 179 1.7 2.6 0.00 0.64 0.00 70 1012.0
20260510175704 71 191 0.9 4.3 0.00 0.64 0.00 70 1012.0
20260510174204 70 205 1.7 4.3 0.00 0.64 0.00 72 1011.7
20260510173704 70 200 2.6 4.3 0.00 0.64 0.00 71 1011.8
20260510172704 69 143 1.7 2.6 0.00 0.64 0.00 73 1011.9
20260510172205 69 168 1.7 4.3 0.00 0.64 0.00 74 1012.0
20260510171704 69 139 1.7 4.3 0.00 0.64 0.00 74 1012.1
20260510170704 68 138 1.7 2.6 0.00 0.64 0.00 76 1012.0
20260510170204 67 113 1.7 5.2 0.00 0.64 0.00 74 1012.0
20260510165704 68 203 1.7 2.6 0.00 0.64 0.00 75 1012.1
20260510165204 67 205 2.6 2.6 0.00 0.64 0.00 76 1012.2
20260510164704 67 218 0.9 2.6 0.00 0.64 0.00 76 1012.2
20260510164204 67 194 1.7 2.6 0.00 0.64 0.00 76 1012.3
20260510163704 67 173 1.7 2.6 0.00 0.64 0.00 77 1012.3
20260510163205 67 159 1.7 4.3 0.00 0.64 0.00 77 1012.3
20260510162704 67 194 1.7 5.2 0.00 0.64 0.00 77 1012.4
20260510162204 66 182 1.7 4.3 0.00 0.64 0.00 79 1012.5
20260510161204 66 205 2.6 7.0 0.00 0.64 0.00 78 1012.4
20260510160204 65 180 2.6 4.3 0.00 0.64 0.00 80 1012.5
20260510155705 65 152 2.6 4.3 0.00 0.64 0.00 80 1012.5
20260510155204 65 206 1.7 5.2 0.00 0.64 0.00 82 1012.7
20260510154704 64 167 1.7 5.2 0.00 0.64 0.00 80 1012.7
20260510154204 64 188 1.7 2.6 0.00 0.64 0.00 81 1012.7
20260510153704 64 213 1.7 2.6 0.00 0.64 0.00 85 1012.8
20260510153204 63 122 0.9 1.7 0.00 0.64 0.00 85 1012.8
20260510152704 63 143 1.7 2.6 0.00 0.64 0.00 86 1012.8
20260510152204 62 128 0.9 2.6 0.00 0.64 0.00 86 1012.9
20260510151704 62 167 1.7 1.7 0.00 0.64 0.00 87 1012.9
20260510150205 61 187 0.9 1.7 0.00 0.64 0.00 87 1013.0
20260510145704 60 207 0.9 2.6 0.00 0.64 0.00 88 1012.9
20260510145204 60 102 0.0 1.7 0.00 0.64 0.00 89 1012.8
20260510144204 59 208 0.9 1.7 0.00 0.64 0.00 91 1012.8
20260510143204 58 230 0.0 2.6 0.00 0.64 0.00 92 1012.8
20260510142704 57 276 0.0 1.7 0.00 0.64 0.00 92 1012.7
20260510142205 57 205 0.9 2.6 0.00 0.64 0.00 93 1012.8
20260510141704 57 188 0.9 1.7 0.00 0.64 0.00 93 1012.8
20260510141204 57 208 0.0 2.6 0.00 0.64 0.00 94 1012.7
20260510135704 56 198 0.0 1.7 0.00 0.64 0.00 95 1012.5
20260510135204 56 182 0.0 1.7 0.00 0.64 0.00 95 1012.5
20260510134704 56 182 0.0 1.7 0.00 0.64 0.00 95 1012.6
20260510134204 56 196 0.0 1.7 0.00 0.64 0.00 95 1012.6
20260510133703 55 150 0.0 1.7 0.00 0.64 0.00 96 1012.7
20260510133204 55 161 0.0 0.9 0.00 0.64 0.00 96 1012.8
20260510132704 55 190 0.0 1.7 0.00 0.64 0.00 96 1012.8
20260510132204 55 233 0.0 1.7 0.00 0.64 0.00 96 1012.8
20260510131705 55 238 0.0 1.7 0.00 0.64 0.00 96 1012.7
20260510130704 55 258 0.0 1.7 0.00 0.64 0.00 96 1012.7
20260510130204 55 258 0.0 1.7 0.00 0.64 0.00 97 1012.8
20260510124704 54 268 0.0 1.7 0.00 0.64 0.00 97 1012.7
20260510123704 54 258 0.9 1.7 0.00 0.64 0.00 97 1012.6
20260510123203 54 261 0.9 1.7 0.00 0.64 0.00 97 1012.5
20260510122704 53 260 0.0 1.7 0.00 0.64 0.00 97 1012.4
20260510122204 53 260 0.9 1.7 0.00 0.64 0.00 97 1012.4
20260510121704 53 251 0.9 1.7 0.00 0.64 0.00 97 1012.3
20260510121205 53 297 0.0 0.9 0.00 0.64 0.00 97 1012.3
20260510120704 53 243 0.0 0.0 0.00 0.64 0.00 97 1012.3
20260510120204 53 243 0.0 0.9 0.00 0.64 0.00 97 1012.2
20260510115704 53 243 0.0 0.0 0.00 0.64 0.00 97 1012.2
20260510114704 53 243 0.0 0.0 0.00 0.64 0.00 97 1012.1
20260510114204 53 243 0.0 0.0 0.00 0.64 0.00 97 1011.9
20260510113205 53 243 0.0 0.9 0.00 0.64 0.00 97 1012.2
20260510112704 52 243 0.0 0.0 0.00 0.64 0.00 97 1012.1
20260510112204 52 243 0.0 0.0 0.00 0.64 0.00 97 1012.0
20260510111704 52 243 0.0 1.7 0.00 0.64 0.00 97 1012.0
20260510111204 52 243 0.0 0.0 0.00 0.64 0.00 97 1011.9
20260510110704 52 243 0.0 0.0 0.00 0.64 0.00 97 1011.8
20260510110204 52 243 0.0 0.0 0.00 0.64 0.00 97 1011.8
20260510105704 52 243 0.0 0.0 0.00 0.64 0.00 97 1011.8
20260510105204 52 243 0.0 0.9 0.00 0.64 0.00 97 1011.7
20260510104704 52 242 0.0 1.7 0.00 0.64 0.00 97 1011.7
20260510104204 52 152 0.0 1.7 0.00 0.64 0.00 97 1011.5
20260510103704 52 177 0.0 0.9 0.00 0.64 0.00 97 1011.4
20260510103204 52 179 0.0 1.7 0.00 0.64 0.00 97 1011.4
20260510102704 52 179 0.0 0.9 0.00 0.64 0.00 97 1011.4
20260510102204 52 181 0.0 1.7 0.00 0.65 0.00 97 1011.4
20260510101703 52 181 0.0 1.7 0.00 0.65 0.00 97 1011.4
20260510101204 52 181 0.0 1.7 0.00 0.65 0.00 96 1011.5
20260510100704 52 181 0.0 1.7 0.00 0.65 0.00 96 1011.6
20260510100204 52 181 0.0 0.0 0.00 0.65 0.00 96 1011.7
20260510095704 52 181 0.0 0.0 0.00 0.65 0.00 96 1011.8
20260510095204 52 181 0.0 0.0 0.00 0.65 0.00 96 1011.8
20260510094206 52 181 0.0 1.7 0.00 0.65 0.00 97 1011.7
20260510093704 52 181 0.0 1.7 0.00 0.65 0.00 97 1011.6
20260510093204 52 181 0.0 1.7 0.00 0.65 0.00 96 1011.6
20260510092704 52 231 0.0 1.7 0.00 0.65 0.00 96 1011.7
20260510092204 52 231 0.0 0.9 0.00 0.65 0.00 96 1011.8
20260510091704 52 231 0.0 0.0 0.00 0.65 0.00 96 1011.6
20260510091204 52 231 0.0 0.0 0.00 0.65 0.00 96 1011.7
20260510090704 52 231 0.0 0.0 0.00 0.65 0.00 96 1011.9
20260510090204 52 231 0.0 0.0 0.00 0.65 0.00 97 1012.0
20260510085704 52 231 0.0 0.9 0.00 0.65 0.00 97 1011.9
20260510084704 53 231 0.0 0.0 0.00 0.65 0.00 97 1011.7
20260510084204 53 231 0.0 0.9 0.00 0.66 0.00 97 1011.7
20260510083704 53 231 0.0 0.0 0.00 0.66 0.00 97 1011.7
20260510083204 53 231 0.0 1.7 0.00 0.66 0.00 97 1011.8
20260510081204 53 167 0.0 0.0 0.00 0.66 0.00 97 1011.4
20260510080704 53 167 0.0 0.0 0.00 0.66 0.00 97 1011.5
20260510080204 53 167 0.0 0.0 0.00 0.66 0.00 97 1011.3
20260510074703 53 167 0.0 0.0 0.00 0.66 0.00 96 1011.3
20260510074204 53 167 0.0 0.0 0.00 0.66 0.00 96 1011.3
20260510073704 53 167 0.0 0.0 0.00 0.66 0.00 97 1011.4
20260510073204 53 167 0.0 0.0 0.00 0.66 0.00 97 1011.3
20260510072704 53 167 0.0 0.0 0.00 0.66 0.00 96 1011.3
20260510072204 53 167 0.0 0.0 0.00 0.66 0.00 96 1011.3
20260510071704 53 167 0.0 0.0 0.00 0.66 0.00 96 1011.4
20260510071204 53 167 0.0 0.0 0.00 0.66 0.00 97 1011.3
20260510070204 53 167 0.0 0.0 0.00 0.66 0.00 97 1011.4
20260510065704 53 167 0.0 0.0 0.00 0.66 0.00 97 1011.3
20260510064704 53 167 0.0 0.0 0.00 0.66 0.00 96 1011.4
20260510063704 53 167 0.0 0.0 0.00 0.66 0.00 96 1011.2
20260510063204 53 167 0.0 0.0 0.00 0.66 0.00 96 1011.2
20260510062704 53 167 0.0 0.0 0.00 0.66 0.00 96 1011.0
20260510062204 53 167 0.0 0.0 0.00 0.66 0.00 96 1010.8
20260510061204 53 167 0.0 0.0 0.00 0.66 0.00 96 1010.8
20260510060704 53 167 0.0 0.0 0.00 0.66 0.00 96 1010.9
20260510060204 53 167 0.0 0.0 0.00 0.66 0.00 96 1010.9
20260510055704 53 167 0.0 1.7 0.00 0.66 0.00 96 1011.0
20260510055204 53 167 0.0 0.0 0.00 0.66 0.00 96 1011.0
20260510054704 53 167 0.0 0.0 0.00 0.66 0.00 96 1011.2
20260510054204 53 167 0.0 0.0 0.00 0.66 0.00 96 1011.2
20260510053704 53 167 0.0 0.0 0.00 0.66 0.00 96 1011.2
20260510053204 53 167 0.0 0.0 0.00 0.66 0.00 96 1011.2
20260510052704 53 167 0.0 0.0 0.00 0.66 0.00 96 1011.1
20260510052204 53 167 0.0 0.0 0.00 0.66 0.00 96 1011.1
20260510051704 53 167 0.0 0.0 0.00 0.66 0.00 96 1011.1
20260510051204 53 167 0.0 0.0 0.00 0.66 0.00 96 1011.0
20260510050704 53 167 0.0 1.7 0.00 0.66 0.00 96 1011.1
20260510050204 53 167 0.0 0.9 0.00 0.66 0.00 96 1011.2
20260510045705 53 167 0.0 0.9 0.00 0.66 0.00 96 1011.3
20260510044704 53 167 0.0 0.0 0.00 0.66 0.00 96 1011.2
20260510044204 53 167 0.0 0.0 0.00 0.66 0.00 96 1011.2
20260510043704 53 167 0.0 0.0 0.00 0.66 0.00 96 1011.2
20260510043204 53 167 0.0 0.0 0.00 0.66 0.00 96 1011.1
20260510042704 53 167 0.0 0.0 0.00 0.66 0.00 96 1011.0
20260510042204 53 167 0.0 0.0 0.00 0.66 0.00 96 1011.0
20260510041704 53 167 0.0 0.0 0.00 0.66 0.00 96 1011.0
20260510041204 53 167 0.0 0.0 0.00 0.66 0.00 96 1011.0
20260510040204 53 167 0.0 0.0 0.00 0.66 0.00 96 1010.9
20260510034704 53 167 0.0 0.0 0.00 0.66 0.66 96 1011.1
20260510033704 53 154 0.0 1.7 0.00 0.66 0.66 96 1011.1
20260510033204 53 153 0.0 1.7 0.00 0.66 0.66 96 1011.1
20260510032703 53 181 0.0 1.7 0.00 0.66 0.66 96 1011.1
20260510032204 53 140 0.0 1.7 0.00 0.66 0.66 96 1011.1
20260510031704 53 109 0.0 1.7 0.00 0.66 0.66 96 1011.0
20260510031204 53 109 0.0 1.7 0.00 0.66 0.66 96 1011.0
20260510030704 53 202 0.0 1.7 0.00 0.66 0.66 96 1011.1
20260510025704 53 201 0.0 0.0 0.00 0.66 0.66 96 1010.9
20260510025204 53 201 0.0 0.0 0.00 0.66 0.66 96 1010.9
20260510024704 53 201 0.0 0.0 0.00 0.66 0.66 96 1010.9
20260510023704 53 201 0.0 0.0 0.00 0.66 0.66 96 1010.9
20260510023204 53 201 0.0 0.0 0.00 0.66 0.66 96 1010.9
20260510022705 53 201 0.0 0.0 0.00 0.66 0.66 96 1011.1
20260510021704 53 201 0.0 0.0 0.00 0.66 0.66 96 1011.0
20260510021204 53 201 0.0 0.0 0.00 0.66 0.66 96 1011.1
20260510020704 53 201 0.0 0.0 0.00 0.66 0.66 96 1011.0
20260510020204 53 201 0.0 0.0 0.00 0.66 0.66 96 1011.1
20260510015704 53 201 0.0 0.0 0.00 0.66 0.66 96 1011.1
20260510015204 54 201 0.0 0.0 0.00 0.66 0.66 96 1011.0
20260510014204 53 224 0.0 0.0 0.00 0.66 0.66 96 1011.2
20260510013204 54 224 0.0 0.0 0.00 0.66 0.66 96 1011.0
20260510012703 54 224 0.0 0.0 0.00 0.66 0.66 96 1011.0
20260510012204 54 224 0.0 1.7 0.00 0.66 0.66 96 1010.9
20260510011704 54 201 0.0 0.0 0.00 0.66 0.66 96 1010.8
20260510011204 54 201 0.0 1.7 0.00 0.66 0.66 96 1010.8
20260510010204 54 213 0.0 1.7 0.00 0.66 0.66 96 1010.8
20260510005704 54 199 0.0 1.7 0.00 0.66 0.66 96 1010.9
20260510005204 54 199 0.0 0.0 0.00 0.66 0.66 96 1010.7
20260510004704 54 199 0.0 0.0 0.01 0.66 0.66 96 1010.7
20260510004204 54 199 0.0 1.7 0.01 0.66 0.66 96 1010.6
20260510003704 54 194 0.0 1.7 0.01 0.66 0.66 96 1010.4
20260510003204 54 235 0.0 1.7 0.02 0.66 0.66 96 1010.5
20260510002704 54 133 0.0 1.7 0.03 0.66 0.66 96 1010.4
20260510002205 54 118 0.0 1.7 0.04 0.66 0.66 96 1010.3
20260510000704 54 118 0.0 1.7 0.07 0.66 0.66 96 1010.3
20260510000204 54 118 0.0 1.7 0.07 0.66 0.66 96 1010.2
20260509235705 54 205 0.9 2.6 0.08 0.66 0.66 96 1010.4
20260509235204 54 98 0.0 0.9 0.08 0.66 0.66 96 1010.1
20260509234704 54 98 0.0 1.7 0.09 0.65 0.65 96 1010.1
20260509234204 54 98 0.9 1.7 0.10 0.65 0.65 96 1010.1
20260509233704 54 111 0.9 1.7 0.11 0.65 0.65 96 1010.3
20260509232704 54 139 0.9 0.9 0.12 0.63 0.63 96 1010.5
20260509232204 54 132 0.0 1.7 0.12 0.62 0.62 96 1010.8
20260509231704 54 132 0.0 1.7 0.11 0.60 0.60 96 1010.9
20260509231204 54 137 0.0 1.7 0.12 0.60 0.60 96 1011.0
20260509230704 54 84 0.0 0.9 0.12 0.59 0.59 95 1011.0
20260509230204 53 84 0.0 0.9 0.13 0.59 0.59 95 1011.0
20260509225704 53 84 0.0 1.7 0.13 0.58 0.58 95 1011.1
20260509225204 53 84 0.0 1.7 0.18 0.58 0.58 95 1011.2
20260509224704 53 84 0.0 1.7 0.18 0.56 0.56 95 1011.2